Weather Roundup
Issued by NWS Chicago, IL

Home | Current Version | Previous Version | Graphics & Text | Print | Product List | Glossary Off
Versions: 1 2 3 4 5 6 7 8 9 10 11 12 13 14 15 16 17 18 19 20 21 22 23 24 25 26 27 28 29 30 31 32 33 34 35 36 37 38 39 40 41 42 43 44 45 46 47 48 49 50

113
NZUS59 KLOT 231009
HRRLOT

CHICAGO AREA WEATHER ROUNDUP
NATIONAL WEATHER SERVICE CHICAGO/ROMEOVILLE IL
500 AM CDT TUE MAY 23 2017

NOTE: "FAIR" INDICATES FEW OR NO CLOUDS BELOW 12,000 FEET WITH NO
SIGNIFICANT WEATHER AND/OR OBSTRUCTIONS TO VISIBILITY.

* THESE STATIONS ARE NOT UNDER NWS QUALITY CONTROL. THEY ALSO MAY NOT
  REPORT WEATHER SUCH AS PRECIPITATION OR FOG.

ILZ005-006-012>014-019>023-231100-
NORTHEAST ILLINOIS

CITY           SKY/WX    TMP DP  RH WIND       PRES   REMARKS
OHARE          CLOUDY    59  52  77 SW9       29.81F
MIDWAY         CLOUDY    60  54  80 SW10      29.82F
AURORA         CLOUDY    58  54  86 S7        29.82F
LANSING*       CLOUDY    58  54  85 SW8       29.84S
WAUKEGAN       CLOUDY    56  54  93 SW6       29.80S
DUPAGE AIRPORT MOCLDY    56  54  93 S7        29.80F
WHEELING       MOCLDY    58  55  90 S7        29.82F
KANKAKEE*      LGT RAIN  57  53  85 CALM      29.85F
MORRIS*        CLOUDY    57  53  86 CALM      29.82S
LEWIS AIRPORT* CLOUDY    57  55  93 SW9       29.83S
NORTHERLY ISL    N/A     60  51  72 S9          N/A
$$

WIZ051-052-058>065-066-070>072-231100-
SOUTHEAST WISCONSIN

CITY           SKY/WX    TMP DP  RH WIND       PRES   REMARKS
MILWAUKEE      PTCLDY    57  54  89 S7        29.78F
KENOSHA*       CLOUDY    58  53  84 SW8       29.80S
RACINE*        CLOUDY    59  53  80 SW8       29.80F
WAUKESHA       CLOUDY    52  52 100 S5        29.78S
WEST BEND      CLOUDY    54  54 100 E6        29.78R
$$

INZ001>003-010>013-019-020-231100-
NORTHWEST INDIANA

CITY           SKY/WX    TMP DP  RH WIND       PRES   REMARKS
GARY*          MOCLDY    61  52  72 S5        29.84F
MICHIGAN CITY* NOT AVBL
RENSSELAER*    NOT AVBL
VALPARAISO     CLOUDY    60  55  83 SW6       29.85F
$$

LMZ740>746-231100-
SOUTHERN LAKE MICHIGAN

STATION/POSITION TIME  SKY/WX   TEMP WIND        PRES    VSBY
                                AIR  DIR/SP/G
                 (UTC)          (F)  (DEG/KT/KT) (MB)    (MI)
HARRISON CRIB    0940            61  210/ 19/ 21   N/A
BURNHAM HARBOR   1000            60  180/ 11/ 13   N/A
CALUMET HARBOR   0942            61  200/  8/ 10 1009.6F
BURNS HARBOR     0940            60  200/ 11/ 15 1010.8F
MICHIGAN CITY    0940            60  170/  9/ 11   N/A
$$

ABBREVIATIONS USED IN REMARKS
   TC - TEMPERATURE IN CELSIUS
  WCI - WIND CHILL INDEX
   HX - HEAT INDEX
  VSB - VISIBILITY
$$




USA.gov is the U.S. government's official web portal to all federal, state and local government web resources and services.